Time,TemperatureF,DewpointF,PressureIn,WindDirection,WindDirectionDegrees,WindSpeedMPH,WindSpeedGustMPH,Humidity,HourlyPrecipIn,Conditions,Clouds,dailyrainin,SoftwareType,DateUTC
2013-05-09 00:00:00,63.9,41.5,29.97,WSW,256,0.0,0.0,44,0.00,CLR,,0.00,WeatherDisplay:10.37,2013-05-09 05:00:00,
2013-05-09 00:05:00,63.3,41.0,29.97,WSW,256,0.0,0.0,44,0.00,CLR,,0.00,WeatherDisplay:10.37,2013-05-09 05:05:00,
2013-05-09 00:10:00,62.8,41.1,29.97,WSW,256,0.0,0.0,45,0.00,CLR,,0.00,WeatherDisplay:10.37,2013-05-09 05:10:00,
2013-05-09 00:15:00,62.2,40.6,29.97,WSW,256,0.0,0.0,45,0.00,CLR,,0.00,WeatherDisplay:10.37,2013-05-09 05:15:00,
2013-05-09 00:20:00,61.7,40.7,29.97,NNW,330,0.0,0.0,46,0.00,CLR,,0.00,WeatherDisplay:10.37,2013-05-09 05:20:00,
2013-05-09 00:25:00,61.3,40.4,29.97,NNW,330,0.0,0.0,46,0.00,CLR,,0.00,WeatherDisplay:10.37,2013-05-09 05:25:00,
2013-05-09 00:30:00,61.0,40.0,29.97,NNW,330,0.0,0.0,46,0.00,CLR,,0.00,WeatherDisplay:10.37,2013-05-09 05:30:00,
2013-05-09 00:36:00,60.6,40.3,29.97,NNW,330,0.0,0.0,47,0.00,CLR,,0.00,WeatherDisplay:10.37,2013-05-09 05:36:00,
2013-05-09 00:41:00,60.3,39.9,29.97,NNW,330,0.0,0.0,47,0.00,CLR,,0.00,WeatherDisplay:10.37,2013-05-09 05:41:00,
2013-05-09 00:46:00,59.7,40.0,29.97,NNW,330,0.0,0.0,48,0.00,CLR,,0.00,WeatherDisplay:10.37,2013-05-09 05:46:00,
2013-05-09 00:51:00,59.2,39.5,29.97,NNW,330,0.0,0.0,48,0.00,CLR,,0.00,WeatherDisplay:10.37,2013-05-09 05:51:00,
2013-05-09 00:57:00,58.6,39.5,29.97,NNW,330,0.0,0.0,49,0.00,CLR,,0.00,WeatherDisplay:10.37,2013-05-09 05:57:00,
2013-05-09 01:02:00,58.1,39.5,29.94,NNW,330,0.0,0.0,50,0.00,CLR,,0.00,WeatherDisplay:10.37,2013-05-09 06:02:00,
2013-05-09 01:07:00,57.6,39.6,29.94,NNW,330,0.0,0.0,51,0.00,CLR,,0.00,WeatherDisplay:10.37,2013-05-09 06:07:00,
2013-05-09 01:12:00,57.2,39.7,29.94,NNW,330,0.0,0.0,52,0.00,CLR,,0.00,WeatherDisplay:10.37,2013-05-09 06:12:00,
2013-05-09 01:17:00,56.7,39.7,29.94,NNW,330,0.0,0.0,53,0.00,CLR,,0.00,WeatherDisplay:10.37,2013-05-09 06:17:00,
2013-05-09 01:22:00,56.5,40.5,29.94,NNW,330,0.0,0.0,55,0.00,CLR,,0.00,WeatherDisplay:10.37,2013-05-09 06:22:00,
2013-05-09 01:28:00,56.1,40.2,29.94,NNW,330,0.0,0.0,55,0.00,CLR,,0.00,WeatherDisplay:10.37,2013-05-09 06:28:00,
2013-05-09 01:33:00,55.9,40.0,29.94,NNW,330,0.0,0.0,55,0.00,CLR,,0.00,WeatherDisplay:10.37,2013-05-09 06:33:00,
2013-05-09 01:38:00,55.6,39.7,29.94,NNW,330,0.0,0.0,55,0.00,CLR,,0.00,WeatherDisplay:10.37,2013-05-09 06:38:00,
2013-05-09 01:43:00,55.4,39.5,29.94,NNW,330,0.0,0.0,55,0.00,CLR,,0.00,WeatherDisplay:10.37,2013-05-09 06:43:00,
2013-05-09 01:48:00,55.0,39.6,29.94,NNW,330,0.0,0.0,56,0.00,CLR,,0.00,WeatherDisplay:10.37,2013-05-09 06:48:00,
2013-05-09 01:54:00,54.7,39.3,29.94,NNW,330,0.0,0.0,56,0.00,CLR,,0.00,WeatherDisplay:10.37,2013-05-09 06:54:00,
2013-05-09 01:59:00,54.5,39.6,29.94,NNW,330,0.0,0.0,57,0.00,CLR,,0.00,WeatherDisplay:10.37,2013-05-09 06:59:00,
2013-05-09 02:04:00,54.3,39.4,29.94,NNW,330,0.0,0.0,57,0.00,CLR,,0.00,WeatherDisplay:10.37,2013-05-09 07:04:00,
2013-05-09 02:09:00,54.1,39.2,29.94,NNW,330,0.0,0.0,57,0.00,CLR,,0.00,WeatherDisplay:10.37,2013-05-09 07:09:00,
2013-05-09 02:14:00,54.1,39.2,29.94,NNW,330,0.0,0.0,57,0.00,CLR,,0.00,WeatherDisplay:10.37,2013-05-09 07:14:00,
2013-05-09 02:19:00,54.0,39.1,29.94,NNW,330,0.0,0.0,57,0.00,CLR,,0.00,WeatherDisplay:10.37,2013-05-09 07:19:00,
2013-05-09 02:25:00,53.6,38.7,29.94,NNW,330,0.0,0.0,57,0.00,CLR,,0.00,WeatherDisplay:10.37,2013-05-09 07:25:00,
2013-05-09 02:30:00,53.4,39.0,29.94,NNW,330,0.0,0.0,58,0.00,CLR,,0.00,WeatherDisplay:10.37,2013-05-09 07:30:00,
2013-05-09 02:35:00,53.1,38.7,29.94,NNW,330,0.0,0.0,58,0.00,CLR,,0.00,WeatherDisplay:10.37,2013-05-09 07:35:00,
2013-05-09 02:40:00,53.1,38.7,29.94,NNW,330,0.0,0.0,58,0.00,CLR,,0.00,WeatherDisplay:10.37,2013-05-09 07:40:00,
2013-05-09 02:45:00,52.9,38.9,29.94,NNW,330,0.0,0.0,59,0.00,CLR,,0.00,WeatherDisplay:10.37,2013-05-09 07:45:00,
2013-05-09 02:50:00,52.7,38.8,29.94,NNW,330,0.0,0.0,59,0.00,CLR,,0.00,WeatherDisplay:10.37,2013-05-09 07:50:00,
2013-05-09 02:56:00,52.5,38.6,29.94,NNW,330,0.0,0.0,59,0.00,CLR,,0.00,WeatherDisplay:10.37,2013-05-09 07:56:00,
2013-05-09 03:01:00,52.5,39.0,29.94,NNW,330,0.0,0.0,60,0.00,CLR,,0.00,WeatherDisplay:10.37,2013-05-09 08:01:00,
2013-05-09 03:06:00,52.5,39.0,29.94,NNW,330,0.0,0.0,60,0.00,CLR,,0.00,WeatherDisplay:10.37,2013-05-09 08:06:00,
2013-05-09 03:11:00,52.3,38.9,29.94,NNW,330,0.0,0.0,60,0.00,CLR,,0.00,WeatherDisplay:10.37,2013-05-09 08:11:00,
2013-05-09 03:17:00,52.3,38.9,29.94,NNW,330,0.0,0.0,60,0.00,CLR,,0.00,WeatherDisplay:10.37,2013-05-09 08:17:00,
2013-05-09 03:22:00,52.5,39.5,29.94,NNW,330,0.0,0.0,61,0.00,CLR,,0.00,WeatherDisplay:10.37,2013-05-09 08:22:00,
2013-05-09 03:27:00,52.7,39.6,29.94,NNW,330,0.0,0.0,61,0.00,CLR,,0.00,WeatherDisplay:10.37,2013-05-09 08:27:00,
2013-05-09 03:32:00,52.9,40.2,29.94,NNW,330,0.0,0.0,62,0.00,CLR,,0.00,WeatherDisplay:10.37,2013-05-09 08:32:00,
2013-05-09 03:37:00,53.1,40.4,29.94,NNW,330,0.0,0.0,62,0.00,CLR,,0.00,WeatherDisplay:10.37,2013-05-09 08:37:00,
2013-05-09 03:42:00,53.4,40.7,29.94,NNW,330,0.0,0.0,62,0.00,CLR,,0.00,WeatherDisplay:10.37,2013-05-09 08:42:00,
2013-05-09 03:48:00,53.6,40.5,29.94,NNW,330,0.0,0.0,61,0.00,CLR,,0.00,WeatherDisplay:10.37,2013-05-09 08:48:00,
2013-05-09 03:53:00,53.8,40.6,29.94,NNW,330,0.0,0.0,61,0.00,CLR,,0.00,WeatherDisplay:10.37,2013-05-09 08:53:00,
2013-05-09 03:58:00,53.8,40.6,29.94,NNW,330,0.0,0.0,61,0.00,CLR,,0.00,WeatherDisplay:10.37,2013-05-09 08:58:00,
2013-05-09 04:03:00,54.0,40.8,29.94,NNW,330,0.0,0.0,61,0.00,CLR,,0.00,WeatherDisplay:10.37,2013-05-09 09:03:00,
2013-05-09 04:08:00,54.1,41.0,29.94,NNW,330,0.0,0.0,61,0.00,CLR,,0.00,WeatherDisplay:10.37,2013-05-09 09:08:00,
2013-05-09 04:14:00,54.3,41.1,29.94,North,357,0.0,0.0,61,0.00,CLR,,0.00,WeatherDisplay:10.37,2013-05-09 09:14:00,
2013-05-09 04:19:00,54.7,41.1,29.94,NNE,22,3.5,0.0,60,0.00,CLR,,0.00,WeatherDisplay:10.37,2013-05-09 09:19:00,
2013-05-09 04:24:00,55.0,41.0,29.94,NE,35,0.0,0.0,59,0.00,CLR,,0.00,WeatherDisplay:10.37,2013-05-09 09:24:00,
2013-05-09 04:29:00,55.2,41.1,29.94,East,82,3.5,3.5,59,0.00,CLR,,0.00,WeatherDisplay:10.37,2013-05-09 09:29:00,
2013-05-09 04:34:00,55.4,40.9,29.94,East,81,0.0,0.0,58,0.00,CLR,,0.00,WeatherDisplay:10.37,2013-05-09 09:34:00,
2013-05-09 04:39:00,55.6,41.0,29.94,NE,49,0.0,0.0,58,0.00,CLR,,0.00,WeatherDisplay:10.37,2013-05-09 09:39:00,
2013-05-09 04:44:00,55.6,40.6,29.94,NE,37,0.0,0.0,57,0.00,CLR,,0.00,WeatherDisplay:10.37,2013-05-09 09:44:00,
2013-05-09 04:50:00,55.6,40.6,29.94,NE,37,0.0,0.0,57,0.00,CLR,,0.00,WeatherDisplay:10.37,2013-05-09 09:50:00,
2013-05-09 04:55:00,55.6,41.0,29.94,NE,37,0.0,0.0,58,0.00,CLR,,0.00,WeatherDisplay:10.37,2013-05-09 09:55:00,
2013-05-09 05:00:00,55.6,41.0,29.94,NE,37,0.0,0.0,58,0.00,CLR,,0.00,WeatherDisplay:10.37,2013-05-09 10:00:00,
2013-05-09 05:05:00,55.4,40.9,29.94,NE,37,0.0,0.0,58,0.00,CLR,,0.00,WeatherDisplay:10.37,2013-05-09 10:05:00,
2013-05-09 05:10:00,55.4,40.9,29.94,NE,37,0.0,0.0,58,0.00,CLR,,0.00,WeatherDisplay:10.37,2013-05-09 10:10:00,
2013-05-09 05:15:00,55.4,40.9,29.94,East,96,3.5,3.6,58,0.00,CLR,,0.00,WeatherDisplay:10.37,2013-05-09 10:15:00,
2013-05-09 05:21:00,55.6,41.0,29.94,ENE,73,3.5,4.0,58,0.00,CLR,,0.00,WeatherDisplay:10.37,2013-05-09 10:21:00,
2013-05-09 05:26:00,55.8,41.2,29.94,East,95,2.3,2.3,58,0.00,CLR,,0.00,WeatherDisplay:10.37,2013-05-09 10:26:00,
2013-05-09 05:31:00,55.9,41.4,29.94,North,8,3.5,0.0,58,0.00,CLR,,0.00,WeatherDisplay:10.37,2013-05-09 10:31:00,
2013-05-09 05:36:00,56.1,41.1,29.94,East,80,2.3,0.0,57,0.00,CLR,,0.00,WeatherDisplay:10.37,2013-05-09 10:36:00,
2013-05-09 05:41:00,56.1,41.1,29.94,East,86,0.0,0.0,57,0.00,CLR,,0.00,WeatherDisplay:10.37,2013-05-09 10:41:00,
2013-05-09 05:46:00,56.1,41.1,29.94,ENE,77,2.3,0.0,57,0.00,CLR,,0.00,WeatherDisplay:10.37,2013-05-09 10:46:00,
2013-05-09 05:52:00,56.1,41.1,29.94,East,95,3.5,0.0,57,0.00,CLR,,0.00,WeatherDisplay:10.37,2013-05-09 10:52:00,
2013-05-09 05:57:00,56.3,40.8,29.94,East,88,0.0,0.0,56,0.00,CLR,,0.00,WeatherDisplay:10.37,2013-05-09 10:57:00,
2013-05-09 06:02:00,56.3,40.8,29.94,ENE,64,2.3,0.0,56,0.00,CLR,,0.00,WeatherDisplay:10.37,2013-05-09 11:02:00,
2013-05-09 06:08:00,56.3,40.8,29.94,ENE,58,0.0,0.0,56,0.00,CLR,,0.00,WeatherDisplay:10.37,2013-05-09 11:08:00,
2013-05-09 06:13:00,56.3,40.8,29.94,ENE,64,0.0,0.0,56,0.00,CLR,,0.00,WeatherDisplay:10.37,2013-05-09 11:13:00,
2013-05-09 06:18:00,56.3,40.8,29.94,ENE,64,0.0,0.0,56,0.00,CLR,,0.00,WeatherDisplay:10.37,2013-05-09 11:18:00,
2013-05-09 06:23:00,56.5,41.0,29.94,NE,35,3.5,0.0,56,0.00,CLR,,0.00,WeatherDisplay:10.37,2013-05-09 11:23:00,
2013-05-09 06:28:00,56.5,41.0,29.94,NE,44,0.0,0.0,56,0.00,CLR,,0.00,WeatherDisplay:10.37,2013-05-09 11:28:00,
2013-05-09 06:33:00,56.7,40.7,29.94,NE,42,0.0,0.0,55,0.00,CLR,,0.00,WeatherDisplay:10.37,2013-05-09 11:33:00,
2013-05-09 06:38:00,56.7,40.7,29.94,NE,40,0.0,0.0,55,0.00,CLR,,0.00,WeatherDisplay:10.37,2013-05-09 11:38:00,
2013-05-09 06:43:00,56.8,40.8,29.94,East,85,0.0,0.0,55,0.00,CLR,,0.00,WeatherDisplay:10.37,2013-05-09 11:43:00,
2013-05-09 06:49:00,57.2,40.7,29.94,East,84,3.5,0.0,54,0.00,CLR,,0.00,WeatherDisplay:10.37,2013-05-09 11:49:00,
2013-05-09 06:54:00,57.4,40.9,29.94,East,81,0.0,0.0,54,0.00,CLR,,0.00,WeatherDisplay:10.37,2013-05-09 11:54:00,
2013-05-09 06:59:00,57.6,41.0,29.94,North,357,0.0,0.0,54,0.00,CLR,,0.00,WeatherDisplay:10.37,2013-05-09 11:59:00,
2013-05-09 07:04:00,57.6,40.5,29.94,East,81,0.0,0.0,53,0.00,CLR,,0.00,WeatherDisplay:10.37,2013-05-09 12:04:00,
2013-05-09 07:10:00,57.6,40.5,29.94,NE,41,3.6,0.0,53,0.00,CLR,,0.00,WeatherDisplay:10.37,2013-05-09 12:10:00,
2013-05-09 07:15:00,57.6,40.5,29.94,NNE,20,3.5,3.5,53,0.00,CLR,,0.00,WeatherDisplay:10.37,2013-05-09 12:15:00,
2013-05-09 07:20:00,57.6,40.5,29.94,East,86,5.8,5.8,53,0.00,CLR,,0.00,WeatherDisplay:10.37,2013-05-09 12:20:00,
2013-05-09 07:26:00,57.6,40.1,29.94,NE,56,3.6,3.6,52,0.00,CLR,,0.00,WeatherDisplay:10.37,2013-05-09 12:26:00,
2013-05-09 07:31:00,57.7,39.7,29.94,East,79,3.1,0.0,51,0.00,CLR,,0.00,WeatherDisplay:10.37,2013-05-09 12:31:00,
2013-05-09 07:36:00,57.9,39.9,29.94,ENE,70,3.5,3.5,51,0.00,CLR,,0.00,WeatherDisplay:10.37,2013-05-09 12:36:00,
2013-05-09 07:41:00,58.1,39.5,29.94,NE,48,0.0,0.0,50,0.00,CLR,,0.00,WeatherDisplay:10.37,2013-05-09 12:41:00,
2013-05-09 07:46:00,58.5,39.9,29.94,NE,46,3.5,3.5,50,0.00,CLR,,0.00,WeatherDisplay:10.37,2013-05-09 12:46:00,
2013-05-09 07:51:00,58.8,40.2,29.94,East,93,3.5,0.0,50,0.00,CLR,,0.00,WeatherDisplay:10.37,2013-05-09 12:51:00,
2013-05-09 07:57:00,59.4,40.2,29.94,NNE,31,3.5,3.5,49,0.00,CLR,,0.00,WeatherDisplay:10.37,2013-05-09 12:57:00,
2013-05-09 08:02:00,59.5,39.8,29.94,South,172,0.0,0.0,48,0.00,CLR,,0.00,WeatherDisplay:10.37,2013-05-09 13:02:00,
2013-05-09 08:07:00,59.7,40.5,29.94,SSW,213,2.3,2.3,49,0.00,CLR,,0.00,WeatherDisplay:10.37,2013-05-09 13:07:00,
2013-05-09 08:13:00,59.7,41.0,29.94,NNW,343,0.0,0.0,50,0.00,CLR,,0.00,WeatherDisplay:10.37,2013-05-09 13:13:00,
2013-05-09 08:18:00,59.7,40.5,29.94,NNE,26,3.6,3.6,49,0.00,CLR,,0.00,WeatherDisplay:10.37,2013-05-09 13:18:00,
2013-05-09 08:23:00,59.4,40.2,29.94,NNE,14,5.8,5.8,49,0.00,CLR,,0.00,WeatherDisplay:10.37,2013-05-09 13:23:00,
2013-05-09 08:28:00,59.2,40.0,29.94,East,83,4.6,4.6,49,0.00,CLR,,0.00,WeatherDisplay:10.37,2013-05-09 13:28:00,
2013-05-09 08:33:00,58.8,40.2,29.94,NE,56,4.6,4.6,50,0.00,CLR,,0.00,WeatherDisplay:10.37,2013-05-09 13:33:00,
2013-05-09 08:39:00,58.8,40.2,29.94,ENE,58,3.5,3.5,50,0.00,CLR,,0.00,WeatherDisplay:10.37,2013-05-09 13:39:00,
2013-05-09 08:44:00,58.6,40.6,29.94,East,87,3.5,3.5,51,0.00,CLR,,0.00,WeatherDisplay:10.37,2013-05-09 13:44:00,
2013-05-09 08:49:00,58.6,40.6,29.94,NE,45,3.5,3.5,51,0.00,CLR,,0.00,WeatherDisplay:10.37,2013-05-09 13:49:00,
2013-05-09 08:54:00,58.6,40.6,29.94,ENE,62,3.5,3.5,51,0.00,CLR,,0.00,WeatherDisplay:10.37,2013-05-09 13:54:00,
2013-05-09 08:59:00,58.6,40.6,29.94,ENE,64,3.5,3.5,51,0.00,CLR,,0.00,WeatherDisplay:10.37,2013-05-09 13:59:00,
2013-05-09 09:04:00,58.6,40.6,29.94,East,94,3.5,3.5,51,0.00,CLR,,0.00,WeatherDisplay:10.37,2013-05-09 14:04:00,
2013-05-09 09:10:00,58.5,40.9,29.94,ENE,71,3.5,3.5,52,0.00,CLR,,0.00,WeatherDisplay:10.37,2013-05-09 14:10:00,
2013-05-09 09:15:00,58.5,40.9,29.94,East,79,3.5,0.0,52,0.00,CLR,,0.00,WeatherDisplay:10.37,2013-05-09 14:15:00,
2013-05-09 09:20:00,58.3,40.7,29.94,ENE,63,3.5,3.5,52,0.00,CLR,,0.00,WeatherDisplay:10.37,2013-05-09 14:20:00,
2013-05-09 09:25:00,58.1,40.6,29.94,NE,55,3.5,3.5,52,0.00,CLR,,0.00,WeatherDisplay:10.37,2013-05-09 14:25:00,
2013-05-09 09:30:00,58.1,40.6,29.94,NNE,33,3.5,3.5,52,0.00,CLR,,0.00,WeatherDisplay:10.37,2013-05-09 14:30:00,
2013-05-09 09:35:00,57.9,40.4,29.94,East,82,3.5,3.5,52,0.00,CLR,,0.00,WeatherDisplay:10.37,2013-05-09 14:35:00,
2013-05-09 09:40:00,57.9,40.4,29.94,NE,54,3.5,3.5,52,0.00,CLR,,0.00,WeatherDisplay:10.37,2013-05-09 14:40:00,
2013-05-09 09:46:00,57.9,40.4,29.94,East,80,3.5,0.0,52,0.00,CLR,,0.00,WeatherDisplay:10.37,2013-05-09 14:46:00,
2013-05-09 09:51:00,57.7,40.7,29.94,NE,56,3.5,0.0,53,0.00,CLR,,0.00,WeatherDisplay:10.37,2013-05-09 14:51:00,
2013-05-09 09:56:00,57.6,40.5,29.94,ENE,60,3.5,3.5,53,0.00,CLR,,0.00,WeatherDisplay:10.37,2013-05-09 14:56:00,
2013-05-09 10:01:00,57.4,40.9,29.94,East,81,3.5,3.5,54,0.00,CLR,,0.00,WeatherDisplay:10.37,2013-05-09 15:01:00,
2013-05-09 10:06:00,57.4,40.9,29.94,ENE,71,2.3,0.0,54,0.00,CLR,,0.00,WeatherDisplay:10.37,2013-05-09 15:06:00,
2013-05-09 10:11:00,57.4,40.9,29.94,East,85,3.5,3.5,54,0.00,CLR,,0.00,WeatherDisplay:10.37,2013-05-09 15:11:00,
2013-05-09 10:16:00,57.4,40.9,29.97,ENE,76,4.6,4.6,54,0.00,CLR,,0.00,WeatherDisplay:10.37,2013-05-09 15:16:00,
2013-05-09 10:21:00,57.4,40.9,29.97,ENE,64,3.5,3.6,54,0.00,CLR,,0.00,WeatherDisplay:10.37,2013-05-09 15:21:00,
2013-05-09 10:27:00,57.4,41.3,29.97,East,85,4.6,4.6,55,0.00,CLR,,0.00,WeatherDisplay:10.37,2013-05-09 15:27:00,
2013-05-09 10:32:00,57.4,41.3,29.94,NNE,32,5.8,5.8,55,0.00,CLR,,0.00,WeatherDisplay:10.37,2013-05-09 15:32:00,
2013-05-09 10:37:00,57.2,41.2,29.94,NE,52,5.8,5.8,55,0.00,CLR,,0.00,WeatherDisplay:10.37,2013-05-09 15:37:00,
2013-05-09 10:42:00,57.2,41.2,29.94,East,80,5.8,5.8,55,0.00,CLR,,0.00,WeatherDisplay:10.37,2013-05-09 15:42:00,
2013-05-09 10:47:00,57.2,41.2,29.97,NE,34,4.6,4.6,55,0.00,CLR,,0.00,WeatherDisplay:10.37,2013-05-09 15:47:00,
2013-05-09 10:52:00,57.2,41.2,29.97,East,91,4.6,4.6,55,0.00,CLR,,0.00,WeatherDisplay:10.37,2013-05-09 15:52:00,
2013-05-09 10:58:00,57.2,41.2,29.97,ENE,78,3.5,3.5,55,0.00,CLR,,0.00,WeatherDisplay:10.37,2013-05-09 15:58:00,
2013-05-09 11:03:00,57.2,41.2,29.97,East,90,4.0,4.0,55,0.00,CLR,,0.00,WeatherDisplay:10.37,2013-05-09 16:03:00,
2013-05-09 11:08:00,57.4,41.3,29.97,East,86,3.5,3.6,55,0.00,CLR,,0.00,WeatherDisplay:10.37,2013-05-09 16:08:00,
2013-05-09 11:13:00,57.2,41.6,29.97,East,87,4.0,4.0,56,0.00,CLR,,0.00,WeatherDisplay:10.37,2013-05-09 16:13:00,
2013-05-09 11:18:00,57.2,41.6,29.97,East,84,4.6,4.6,56,0.00,CLR,,0.00,WeatherDisplay:10.37,2013-05-09 16:18:00,
2013-05-09 11:23:00,57.0,42.4,29.97,East,88,6.7,6.7,58,0.00,CLR,,0.00,WeatherDisplay:10.37,2013-05-09 16:23:00,
2013-05-09 11:29:00,56.8,42.2,29.97,East,80,4.6,4.6,58,0.00,CLR,,0.00,WeatherDisplay:10.37,2013-05-09 16:29:00,
2013-05-09 11:34:00,56.7,42.5,29.97,ENE,77,3.5,3.5,59,0.00,CLR,,0.00,WeatherDisplay:10.37,2013-05-09 16:34:00,
2013-05-09 11:39:00,56.3,42.1,29.97,East,86,5.8,5.8,59,0.00,CLR,,0.00,WeatherDisplay:10.37,2013-05-09 16:39:00,
2013-05-09 11:44:00,55.9,41.8,29.97,East,86,4.6,4.6,59,0.00,CLR,,0.00,WeatherDisplay:10.37,2013-05-09 16:44:00,
2013-05-09 11:49:00,55.8,42.1,29.97,NE,44,3.5,3.5,60,0.00,CLR,,0.00,WeatherDisplay:10.37,2013-05-09 16:49:00,
2013-05-09 11:55:00,55.4,42.2,29.97,ENE,75,3.5,3.6,61,0.00,CLR,,0.00,WeatherDisplay:10.37,2013-05-09 16:55:00,
2013-05-09 12:00:00,55.2,42.4,29.97,East,96,3.5,3.5,62,0.00,CLR,,0.00,WeatherDisplay:10.37,2013-05-09 17:00:00,
2013-05-09 12:05:00,55.0,42.7,29.97,East,82,3.5,3.5,63,0.01,RA,,0.01,WeatherDisplay:10.37,2013-05-09 17:05:00,
2013-05-09 12:10:00,54.9,42.9,29.97,ENE,65,3.6,3.6,64,0.01,RA,,0.01,WeatherDisplay:10.37,2013-05-09 17:10:00,
2013-05-09 12:15:00,54.7,43.1,29.97,NE,45,3.5,0.0,65,0.01,CLR,,0.01,WeatherDisplay:10.37,2013-05-09 17:15:00,
2013-05-09 12:20:00,54.5,43.4,29.97,NNE,31,3.5,0.0,66,0.02,RA,,0.02,WeatherDisplay:10.37,2013-05-09 17:20:00,
2013-05-09 12:26:00,54.5,43.8,29.97,ENE,65,0.0,0.0,67,0.02,RA,,0.02,WeatherDisplay:10.37,2013-05-09 17:26:00,
2013-05-09 12:31:00,54.5,43.8,29.97,NNE,23,0.0,0.0,67,0.02,CLR,,0.02,WeatherDisplay:10.37,2013-05-09 17:31:00,
2013-05-09 12:36:00,54.5,44.2,29.97,NNE,24,0.0,0.0,68,0.03,RA,,0.03,WeatherDisplay:10.37,2013-05-09 17:36:00,
2013-05-09 12:41:00,54.5,44.5,29.97,ENE,70,0.0,0.0,69,0.03,RA,,0.03,WeatherDisplay:10.37,2013-05-09 17:41:00,
2013-05-09 12:47:00,54.7,44.7,29.97,ENE,74,0.0,0.0,69,0.03,CLR,,0.03,WeatherDisplay:10.37,2013-05-09 17:47:00,
2013-05-09 12:52:00,54.7,45.1,29.97,NNE,33,0.0,0.0,70,0.03,CLR,,0.03,WeatherDisplay:10.37,2013-05-09 17:52:00,
2013-05-09 12:57:00,54.7,45.1,29.97,East,90,0.0,0.0,70,0.04,RA,,0.04,WeatherDisplay:10.37,2013-05-09 17:57:00,
2013-05-09 13:02:00,54.9,45.6,29.97,North,9,0.0,0.0,71,0.04,RA,,0.04,WeatherDisplay:10.37,2013-05-09 18:02:00,
2013-05-09 13:07:00,54.9,45.6,29.97,NNE,15,0.0,0.0,71,0.03,CLR,,0.04,WeatherDisplay:10.37,2013-05-09 18:07:00,
2013-05-09 13:13:00,54.9,46.0,29.97,NNE,17,2.3,0.0,72,0.03,CLR,,0.04,WeatherDisplay:10.37,2013-05-09 18:13:00,
2013-05-09 13:18:00,54.9,46.0,29.97,NNE,19,0.0,0.0,72,0.02,,,0.04,WeatherDisplay:10.37,2013-05-09 18:18:00,
2013-05-09 13:23:00,54.7,45.8,29.97,NNE,19,3.5,0.0,72,0.02,,,0.04,WeatherDisplay:10.37,2013-05-09 18:23:00,
2013-05-09 13:28:00,54.7,45.8,29.97,NNE,30,0.0,0.0,72,0.02,,,0.04,WeatherDisplay:10.37,2013-05-09 18:28:00,
2013-05-09 13:33:00,54.7,46.2,29.94,NNE,27,3.5,3.5,73,0.01,,,0.04,WeatherDisplay:10.37,2013-05-09 18:33:00,
2013-05-09 13:39:00,54.7,46.2,29.94,NE,52,3.5,0.0,73,0.01,,,0.04,WeatherDisplay:10.37,2013-05-09 18:39:00,
2013-05-09 13:44:00,54.7,46.2,29.94,ESE,105,3.5,0.0,73,0.01,,,0.04,WeatherDisplay:10.37,2013-05-09 18:44:00,
2013-05-09 13:49:00,54.9,46.7,29.94,North,357,2.3,0.0,74,0.02,RA,,0.05,WeatherDisplay:10.37,2013-05-09 18:49:00,
2013-05-09 13:54:00,54.9,46.7,29.94,NNE,22,0.0,0.0,74,0.02,RA,,0.05,WeatherDisplay:10.37,2013-05-09 18:54:00,
2013-05-09 13:59:00,55.0,47.3,29.94,WNW,303,0.0,0.0,75,0.02,RA,,0.07,WeatherDisplay:10.37,2013-05-09 18:59:00,
2013-05-09 14:04:00,55.0,47.6,29.94,North,6,0.0,0.0,76,0.04,RA,,0.08,WeatherDisplay:10.37,2013-05-09 19:04:00,
2013-05-09 14:09:00,55.0,47.6,29.94,North,6,0.0,0.0,76,0.04,RA,,0.09,WeatherDisplay:10.37,2013-05-09 19:09:00,
2013-05-09 14:15:00,55.2,47.8,29.94,North,0,0.0,0.0,76,0.06,RA,,0.10,WeatherDisplay:10.37,2013-05-09 19:15:00,
2013-05-09 14:20:00,55.2,48.1,29.94,NW,320,3.6,3.6,77,0.08,RA,,0.11,WeatherDisplay:10.37,2013-05-09 19:20:00,
2013-05-09 14:25:00,54.7,47.3,29.94,East,93,5.4,5.4,76,0.09,RA,,0.12,WeatherDisplay:10.37,2013-05-09 19:25:00,
2013-05-09 14:30:00,53.8,45.7,29.94,North,0,3.5,3.5,74,0.10,RA,,0.13,WeatherDisplay:10.37,2013-05-09 19:30:00,
2013-05-09 14:35:00,53.1,44.6,29.97,North,4,5.8,5.8,73,0.10,RA,,0.14,WeatherDisplay:10.37,2013-05-09 19:35:00,
2013-05-09 14:40:00,52.7,44.3,29.97,NW,314,3.5,3.5,73,0.10,RA,,0.14,WeatherDisplay:10.37,2013-05-09 19:40:00,
2013-05-09 14:45:00,52.2,43.8,29.97,NNW,333,3.5,3.5,73,0.11,RA,,0.15,WeatherDisplay:10.37,2013-05-09 19:45:00,
2013-05-09 14:51:00,51.8,43.4,29.97,NW,321,5.8,5.8,73,0.12,RA,,0.17,WeatherDisplay:10.37,2013-05-09 19:51:00,
2013-05-09 14:56:00,51.4,43.1,29.97,East,85,6.9,6.9,73,0.11,RA,,0.17,WeatherDisplay:10.37,2013-05-09 19:56:00,
2013-05-09 15:01:00,51.1,43.1,29.97,North,353,5.8,5.8,74,0.11,RA,,0.18,WeatherDisplay:10.37,2013-05-09 20:01:00,
2013-05-09 15:06:00,50.9,43.3,29.97,NNE,29,6.3,6.3,75,0.10,RA,,0.18,WeatherDisplay:10.37,2013-05-09 20:06:00,
2013-05-09 15:11:00,50.9,43.3,29.97,NNE,28,3.5,3.5,75,0.10,,,0.18,WeatherDisplay:10.37,2013-05-09 20:11:00,
2013-05-09 15:16:00,50.7,43.4,29.97,NNE,26,6.3,6.3,76,0.09,,,0.18,WeatherDisplay:10.37,2013-05-09 20:16:00,
2013-05-09 15:22:00,50.5,43.3,29.97,North,357,5.8,5.8,76,0.08,RA,,0.19,WeatherDisplay:10.37,2013-05-09 20:22:00,
2013-05-09 15:27:00,50.4,43.4,29.97,ENE,73,5.8,5.8,77,0.07,RA,,0.20,WeatherDisplay:10.37,2013-05-09 20:27:00,
2013-05-09 15:32:00,50.2,43.2,29.97,NNW,333,5.8,5.8,77,0.07,RA,,0.21,WeatherDisplay:10.37,2013-05-09 20:32:00,
2013-05-09 15:37:00,50.2,43.6,29.97,North,9,4.6,4.6,78,0.07,RA,,0.21,WeatherDisplay:10.37,2013-05-09 20:37:00,
2013-05-09 15:42:00,50.2,43.6,29.97,East,84,4.6,4.6,78,0.07,RA,,0.22,WeatherDisplay:10.37,2013-05-09 20:42:00,
2013-05-09 15:47:00,50.2,43.9,29.97,North,357,5.8,5.8,79,0.07,RA,,0.22,WeatherDisplay:10.37,2013-05-09 20:47:00,
2013-05-09 15:52:00,50.2,43.9,29.97,NE,36,5.8,5.8,79,0.06,RA,,0.23,WeatherDisplay:10.37,2013-05-09 20:52:00,
2013-05-09 15:58:00,50.2,44.2,29.97,North,6,4.6,4.6,80,0.06,RA,,0.23,WeatherDisplay:10.37,2013-05-09 20:58:00,
2013-05-09 16:03:00,50.2,44.2,29.97,East,87,3.5,3.5,80,0.06,RA,,0.24,WeatherDisplay:10.37,2013-05-09 21:03:00,
2013-05-09 16:08:00,50.4,44.7,29.97,North,10,8.1,8.1,81,0.06,RA,,0.24,WeatherDisplay:10.37,2013-05-09 21:08:00,
2013-05-09 16:13:00,50.4,44.7,29.97,East,100,5.8,5.8,81,0.08,RA,,0.26,WeatherDisplay:10.37,2013-05-09 21:13:00,
2013-05-09 16:18:00,50.5,45.2,29.97,NNE,15,12.7,12.7,82,0.09,RA,,0.27,WeatherDisplay:10.37,2013-05-09 21:18:00,
2013-05-09 16:23:00,50.5,45.2,29.97,West,260,5.8,5.8,82,0.09,RA,,0.28,WeatherDisplay:10.37,2013-05-09 21:23:00,
2013-05-09 16:29:00,50.7,45.7,29.97,ESE,110,9.2,9.2,83,0.08,RA,,0.28,WeatherDisplay:10.37,2013-05-09 21:29:00,
2013-05-09 16:34:00,50.7,45.7,29.97,ENE,69,5.8,5.8,83,0.08,RA,,0.29,WeatherDisplay:10.37,2013-05-09 21:34:00,
2013-05-09 16:39:00,50.5,45.6,29.97,ESE,116,5.8,5.8,83,0.08,RA,,0.29,WeatherDisplay:10.37,2013-05-09 21:39:00,
2013-05-09 16:44:00,50.5,45.9,29.97,East,90,5.8,5.8,84,0.08,RA,,0.30,WeatherDisplay:10.37,2013-05-09 21:44:00,
2013-05-09 16:49:00,50.5,45.9,29.97,East,80,15.0,15.0,84,0.08,RA,,0.30,WeatherDisplay:10.37,2013-05-09 21:49:00,
2013-05-09 16:54:00,50.4,45.7,29.97,NE,36,8.1,8.1,84,0.08,RA,,0.31,WeatherDisplay:10.37,2013-05-09 21:54:00,
2013-05-09 16:59:00,50.4,45.7,29.97,ENE,73,8.0,8.0,84,0.08,RA,,0.31,WeatherDisplay:10.37,2013-05-09 21:59:00,
2013-05-09 17:05:00,50.4,45.7,29.97,East,90,8.1,8.1,84,0.07,,,0.31,WeatherDisplay:10.37,2013-05-09 22:05:00,
2013-05-09 17:10:00,50.2,45.5,29.97,NE,38,9.2,9.2,84,0.07,RA,,0.31,WeatherDisplay:10.37,2013-05-09 22:10:00,
2013-05-09 17:15:00,50.0,45.4,29.97,NNE,22,5.8,5.8,84,0.07,RA,,0.32,WeatherDisplay:10.37,2013-05-09 22:15:00,
2013-05-09 17:20:00,50.0,45.4,30.00,East,89,5.8,5.8,84,0.06,RA,,0.33,WeatherDisplay:10.37,2013-05-09 22:20:00,
2013-05-09 17:26:00,49.8,45.2,30.00,ENE,77,5.8,5.8,84,0.06,RA,,0.33,WeatherDisplay:10.37,2013-05-09 22:26:00,
2013-05-09 17:31:00,49.8,45.2,30.00,East,85,5.4,5.4,84,0.07,RA,,0.34,WeatherDisplay:10.37,2013-05-09 22:31:00,
2013-05-09 17:36:00,49.6,45.0,29.97,ENE,59,4.6,4.6,84,0.06,RA,,0.34,WeatherDisplay:10.37,2013-05-09 22:36:00,
2013-05-09 17:41:00,49.6,45.0,29.97,East,81,5.8,5.8,84,0.08,RA,,0.36,WeatherDisplay:10.37,2013-05-09 22:41:00,
2013-05-09 17:46:00,49.6,45.3,29.97,East,93,5.8,5.8,85,0.07,RA,,0.36,WeatherDisplay:10.37,2013-05-09 22:46:00,
2013-05-09 17:51:00,49.6,45.3,30.00,NNE,28,5.8,5.8,85,0.07,,,0.36,WeatherDisplay:10.37,2013-05-09 22:51:00,
2013-05-09 17:57:00,49.6,45.3,30.00,ENE,72,5.8,5.8,85,0.07,RA,,0.37,WeatherDisplay:10.37,2013-05-09 22:57:00,
2013-05-09 18:02:00,49.6,45.3,30.00,NNE,23,4.6,4.6,85,0.08,RA,,0.38,WeatherDisplay:10.37,2013-05-09 23:02:00,
2013-05-09 18:07:00,49.5,45.1,30.00,NE,37,5.8,5.8,85,0.07,RA,,0.38,WeatherDisplay:10.37,2013-05-09 23:07:00,
2013-05-09 18:12:00,49.5,45.1,30.00,East,86,5.8,5.8,85,0.08,RA,,0.39,WeatherDisplay:10.37,2013-05-09 23:12:00,
2013-05-09 18:17:00,49.3,45.0,30.00,ENE,62,5.8,5.8,85,0.07,RA,,0.39,WeatherDisplay:10.37,2013-05-09 23:17:00,
2013-05-09 18:22:00,49.3,45.0,30.00,NE,41,5.8,5.8,85,0.07,RA,,0.40,WeatherDisplay:10.37,2013-05-09 23:22:00,
2013-05-09 18:28:00,48.9,44.6,30.00,ENE,65,5.8,5.8,85,0.08,RA,,0.41,WeatherDisplay:10.37,2013-05-09 23:28:00,
2013-05-09 18:33:00,48.7,44.4,30.00,ESE,103,5.8,5.8,85,0.07,RA,,0.41,WeatherDisplay:10.37,2013-05-09 23:33:00,
2013-05-09 18:38:00,48.6,44.3,30.00,NNE,23,5.8,5.8,85,0.07,,,0.41,WeatherDisplay:10.37,2013-05-09 23:38:00,
2013-05-09 18:43:00,48.2,43.9,30.00,East,82,8.1,8.1,85,0.06,RA,,0.42,WeatherDisplay:10.37,2013-05-09 23:43:00,
2013-05-09 18:48:00,47.8,43.5,30.00,NE,43,4.6,4.6,85,0.06,RA,,0.42,WeatherDisplay:10.37,2013-05-09 23:48:00,
2013-05-09 18:53:00,47.5,43.2,30.00,East,84,10.4,10.4,85,0.05,,,0.42,WeatherDisplay:10.37,2013-05-09 23:53:00,
2013-05-09 18:59:00,47.3,42.7,30.00,ENE,69,5.8,5.8,84,0.05,,,0.43,WeatherDisplay:10.37,2013-05-09 23:59:00,
2013-05-09 19:04:00,47.1,42.5,30.00,SE,136,8.1,8.1,84,0.05,RA,,0.43,WeatherDisplay:10.37,2013-05-10 00:04:00,
2013-05-09 19:09:00,46.9,42.4,30.00,East,88,10.4,10.4,84,0.04,,,0.43,WeatherDisplay:10.37,2013-05-10 00:09:00,
2013-05-09 19:14:00,46.9,42.4,30.00,NE,37,5.8,5.8,84,0.04,,,0.43,WeatherDisplay:10.37,2013-05-10 00:14:00,
2013-05-09 19:19:00,46.8,42.2,30.00,ENE,68,5.8,5.8,84,0.04,,,0.43,WeatherDisplay:10.37,2013-05-10 00:19:00,
2013-05-09 19:25:00,46.6,42.0,30.00,East,95,4.6,4.6,84,0.04,RA,,0.44,WeatherDisplay:10.37,2013-05-10 00:25:00,
2013-05-09 19:30:00,46.4,41.8,30.00,ENE,65,4.6,4.6,84,0.03,RA,,0.44,WeatherDisplay:10.37,2013-05-10 00:30:00,
2013-05-09 19:35:00,46.4,41.8,30.00,ENE,68,8.1,8.1,84,0.03,,,0.44,WeatherDisplay:10.37,2013-05-10 00:35:00,
2013-05-09 19:40:00,46.2,42.0,30.00,NE,55,5.8,5.8,85,0.02,,,0.44,WeatherDisplay:10.37,2013-05-10 00:40:00,
2013-05-09 19:46:00,46.0,41.8,30.00,East,100,5.8,5.8,85,0.02,,,0.44,WeatherDisplay:10.37,2013-05-10 00:46:00,
2013-05-09 19:51:00,46.0,41.8,30.00,East,87,9.2,9.2,85,0.02,,,0.44,WeatherDisplay:10.37,2013-05-10 00:51:00,
2013-05-09 19:56:00,45.9,41.6,30.00,ENE,68,6.9,6.9,85,0.02,,,0.44,WeatherDisplay:10.37,2013-05-10 00:56:00,
2013-05-09 20:01:00,45.7,41.4,30.00,East,94,5.8,5.8,85,0.01,,,0.44,WeatherDisplay:10.37,2013-05-10 01:01:00,
2013-05-09 20:06:00,45.5,41.3,30.00,NNE,33,3.5,4.0,85,0.01,,,0.44,WeatherDisplay:10.37,2013-05-10 01:06:00,
2013-05-09 20:12:00,45.3,41.1,30.00,NNE,16,6.9,6.9,85,0.01,,,0.44,WeatherDisplay:10.37,2013-05-10 01:12:00,
2013-05-09 20:17:00,45.1,40.9,30.03,East,93,9.2,9.2,85,0.01,,,0.44,WeatherDisplay:10.37,2013-05-10 01:17:00,
2013-05-09 20:22:00,45.0,40.4,30.03,East,83,5.8,5.8,84,0.00,,,0.44,WeatherDisplay:10.37,2013-05-10 01:22:00,
2013-05-09 20:27:00,44.8,40.2,30.03,East,85,5.8,5.8,84,0.01,RA,,0.45,WeatherDisplay:10.37,2013-05-10 01:27:00,
2013-05-09 20:32:00,44.8,40.2,30.03,East,95,5.8,5.8,84,0.01,RA,,0.45,WeatherDisplay:10.37,2013-05-10 01:32:00,
2013-05-09 20:38:00,44.6,40.1,30.03,NE,55,5.8,5.8,84,0.01,,,0.45,WeatherDisplay:10.37,2013-05-10 01:38:00,
2013-05-09 20:43:00,44.6,40.4,30.03,ENE,77,5.8,5.8,85,0.01,,,0.45,WeatherDisplay:10.37,2013-05-10 01:43:00,
2013-05-09 20:48:00,44.6,40.4,30.03,ENE,78,8.1,8.1,85,0.01,,,0.45,WeatherDisplay:10.37,2013-05-10 01:48:00,
2013-05-09 20:53:00,44.4,40.2,30.03,NE,50,3.5,3.5,85,0.01,,,0.45,WeatherDisplay:10.37,2013-05-10 01:53:00,
2013-05-09 20:58:00,44.4,40.2,30.03,NNE,14,5.4,5.4,85,0.01,,,0.45,WeatherDisplay:10.37,2013-05-10 01:58:00,
2013-05-09 21:03:00,44.4,40.2,30.03,NE,50,5.8,5.8,85,0.01,,,0.45,WeatherDisplay:10.37,2013-05-10 02:03:00,
2013-05-09 21:08:00,44.4,40.2,30.03,East,89,5.8,5.8,85,0.01,,,0.45,WeatherDisplay:10.37,2013-05-10 02:08:00,
2013-05-09 21:13:00,44.2,40.0,30.03,East,97,6.9,6.9,85,0.01,,,0.45,WeatherDisplay:10.37,2013-05-10 02:13:00,
2013-05-09 21:19:00,44.2,40.0,30.03,ENE,70,4.6,4.6,85,0.01,,,0.45,WeatherDisplay:10.37,2013-05-10 02:19:00,
2013-05-09 21:24:00,44.1,39.8,30.03,NE,49,6.3,6.3,85,0.01,,,0.45,WeatherDisplay:10.37,2013-05-10 02:24:00,
2013-05-09 21:29:00,44.1,39.8,30.03,East,96,5.8,5.8,85,0.00,,,0.45,WeatherDisplay:10.37,2013-05-10 02:29:00,
2013-05-09 21:34:00,43.9,39.7,30.03,SSE,149,6.9,6.9,85,0.00,,,0.45,WeatherDisplay:10.37,2013-05-10 02:34:00,
2013-05-09 21:39:00,43.7,39.5,30.03,East,99,8.1,8.1,85,0.00,,,0.45,WeatherDisplay:10.37,2013-05-10 02:39:00,
2013-05-09 21:45:00,43.5,39.3,30.03,ESE,118,8.1,8.1,85,0.00,,,0.45,WeatherDisplay:10.37,2013-05-10 02:45:00,
2013-05-09 21:50:00,43.5,39.3,30.03,East,91,8.1,8.1,85,0.00,,,0.45,WeatherDisplay:10.37,2013-05-10 02:50:00,
2013-05-09 21:55:00,43.3,39.1,30.03,East,88,8.1,8.1,85,0.00,,,0.45,WeatherDisplay:10.37,2013-05-10 02:55:00,
2013-05-09 22:00:00,43.2,39.0,30.03,East,88,5.8,5.8,85,0.00,,,0.45,WeatherDisplay:10.37,2013-05-10 03:00:00,
2013-05-09 22:05:00,43.0,38.8,30.03,East,79,3.5,3.5,85,0.00,,,0.45,WeatherDisplay:10.37,2013-05-10 03:05:00,
2013-05-09 22:10:00,42.8,38.6,30.03,North,357,5.8,5.8,85,0.00,,,0.45,WeatherDisplay:10.37,2013-05-10 03:10:00,
2013-05-09 22:16:00,42.8,38.3,30.03,NNE,31,9.2,9.2,84,0.00,,,0.45,WeatherDisplay:10.37,2013-05-10 03:16:00,
2013-05-09 22:21:00,42.6,38.4,30.03,North,350,5.8,5.8,85,0.00,,,0.45,WeatherDisplay:10.37,2013-05-10 03:21:00,
2013-05-09 22:26:00,42.4,37.9,30.03,East,83,5.8,5.8,84,0.00,,,0.45,WeatherDisplay:10.37,2013-05-10 03:26:00,
2013-05-09 22:31:00,42.4,37.9,30.03,East,96,5.8,5.8,84,0.00,,,0.45,WeatherDisplay:10.37,2013-05-10 03:31:00,
2013-05-09 22:36:00,42.4,37.9,30.03,ENE,60,5.8,5.8,84,0.00,,,0.45,WeatherDisplay:10.37,2013-05-10 03:36:00,
2013-05-09 22:41:00,42.4,37.9,30.03,East,90,4.6,4.6,84,0.00,,,0.45,WeatherDisplay:10.37,2013-05-10 03:41:00,
2013-05-09 22:46:00,42.3,37.8,30.03,East,93,9.2,9.2,84,0.00,,,0.45,WeatherDisplay:10.37,2013-05-10 03:46:00,
2013-05-09 22:52:00,42.3,37.8,30.03,ENE,73,5.8,5.8,84,0.00,,,0.45,WeatherDisplay:10.37,2013-05-10 03:52:00,
2013-05-09 22:57:00,42.1,37.3,30.03,North,8,8.1,8.1,83,0.00,,,0.45,WeatherDisplay:10.37,2013-05-10 03:57:00,
2013-05-09 23:01:00,42.1,37.3,30.03,East,87,5.8,5.8,83,0.00,,,0.45,WeatherDisplay:10.37,2013-05-10 04:01:00,
2013-05-09 23:02:00,42.1,37.3,30.03,ENE,72,5.8,5.8,83,0.00,,,0.45,WeatherDisplay:10.37,2013-05-10 04:02:00,
2013-05-09 23:04:00,42.1,37.3,30.03,East,99,6.9,6.9,83,0.00,,,0.45,WeatherDisplay:10.37,2013-05-10 04:04:00,
2013-05-09 23:09:00,42.1,37.3,30.03,ENE,69,5.8,5.8,83,0.00,,,0.45,WeatherDisplay:10.37,2013-05-10 04:09:00,
2013-05-09 23:14:00,42.1,37.3,30.03,ENE,73,8.1,8.1,83,0.00,,,0.45,WeatherDisplay:10.37,2013-05-10 04:14:00,
2013-05-09 23:19:00,42.1,37.3,30.03,NE,43,8.1,8.1,83,0.00,,,0.45,WeatherDisplay:10.37,2013-05-10 04:19:00,
2013-05-09 23:24:00,42.1,37.3,30.03,East,92,5.8,5.8,83,0.00,,,0.45,WeatherDisplay:10.37,2013-05-10 04:24:00,
2013-05-09 23:29:00,41.9,37.1,30.03,NE,43,8.7,8.7,83,0.00,,,0.45,WeatherDisplay:10.37,2013-05-10 04:29:00,
2013-05-09 23:35:00,41.7,36.6,30.03,East,93,5.8,5.8,82,0.00,,,0.45,WeatherDisplay:10.37,2013-05-10 04:35:00,
2013-05-09 23:40:00,41.4,36.0,30.03,NE,53,5.8,5.8,81,0.00,,,0.45,WeatherDisplay:10.37,2013-05-10 04:40:00,
2013-05-09 23:45:00,41.2,35.8,30.03,ESE,113,5.8,6.7,81,0.01,RA,,0.46,WeatherDisplay:10.37,2013-05-10 04:45:00,
2013-05-09 23:50:00,41.0,35.3,30.03,ESE,108,8.1,8.1,80,0.01,RA,,0.46,WeatherDisplay:10.37,2013-05-10 04:50:00,
2013-05-09 23:55:00,40.6,35.0,30.03,East,85,6.9,6.9,80,0.01,,,0.46,WeatherDisplay:10.37,2013-05-10 04:55:00,